Location: Krakow
(50.0830°N, 19.9170°E)
Time: 19:34:49
(UTC+01:00)

Transit 2A - Pass Details

Date: 11 February 2023
Orbit: 591 x 964 km, 66.7° (Epoch: 21 March)

Event Time Altitude Azimuth Distance (km) Brightness Sun altitude
Rises 21:28:15 0° 322° (NW) 3,434 10.1 -43.2°
Reaches altitude 10° 21:30:57 10° 333° (NNW) 2,550 9.2 -43.5°
Enters shadow 21:32:04 15° 340° (NNW) 2,225 8.8 -43.7°
Maximum altitude 21:36:15 31° 35° (NE) 1,562 - -44.2°
Drops below altitude 10° 21:41:47 10° 96° (E) 2,685 - -44.9°
Sets 21:44:42 0° 107° (ESE) 3,643 - -45.2°
